EHI
0 0 0 0 0 0 0 0 0 0 3 8 16 25 25 15 6 3 4 11 25 41 48 55 62 62 55 46 36 27 20 16 12 10 9 9 11 14 16 16 13 9 5 2 1 0 0 0 0
0 0 0 0 0 0 0 0 0 0 4 10 16 22 22 14 8 7 8 16 32 44 47 54 65 67 59 49 39 29 21 15 11 9 8 8 10 11 13 13 10 6 3 1 0 0 0 0 0
0 0 0 0 0 0 0 0 0 2 8 14 18 22 19 12 9 11 14 24 37 45 46 54 69 72 64 55 45 34 24 16 11 9 8 8 8 8 8 9 6 3 1 0 0 0 0 0 0
0 0 0 0 0 0 0 0 0 4 12 20 25 27 20 12 12 17 21 27 38 43 44 56 71 73 67 60 50 40 29 20 13 10 9 8 9 8 6 6 4 2 1 0 0 0 0 0 0
0 0 0 0 0 0 0 1 2 7 17 28 34 33 23 15 20 26 24 25 33 41 45 56 69 71 66 60 51 43 35 25 15 10 8 8 9 8 7 5 3 2 1 0 0 0 0 0 0
0 0 0 0 0 0 0 2 5 13 21 30 37 35 24 17 23 26 22 21 27 38 47 55 62 65 63 57 50 44 36 27 18 12 9 9 9 8 7 6 4 4 3 1 0 0 0 0 0
0 0 0 0 0 0 0 1 7 16 23 27 32 31 21 16 19 22 23 24 28 38 46 50 52 56 56 51 46 40 34 26 20 14 10 9 8 7 7 6 5 5 4 2 0 0 0 0 0
0 0 0 0 0 0 0 1 6 15 20 21 24 24 19 17 22 27 31 34 35 39 44 46 45 47 47 44 39 35 30 25 19 13 10 8 5 4 4 4 5 5 3 1 0 1 1 0 0
0 0 0 0 0 0 2 3 6 10 14 17 22 24 23 27 32 38 42 41 39 38 40 41 40 39 39 37 35 31 27 23 19 12 9 6 3 1 2 2 3 4 2 1 1 2 2 1 0
0 0 0 0 0 2 4 6 6 8 11 17 25 29 31 34 38 44 46 43 38 33 29 30 32 32 32 33 32 30 26 21 17 12 8 5 3 2 2 1 2 4 4 4 5 5 3 2 2
0 0 0 0 1 3 5 6 6 9 12 16 24 31 35 38 40 44 46 42 35 28 24 23 24 25 25 26 29 27 24 19 15 11 8 6 4 3 2 1 2 5 6 7 9 7 5 3 3
0 0 0 1 2 3 4 5 6 9 12 16 24 32 37 39 41 44 44 41 36 31 29 26 25 25 23 23 26 26 22 18 14 11 8 6 5 4 2 1 3 6 7 8 9 8 4 2 2
0 0 1 2 3 3 3 5 7 10 14 21 30 36 38 39 40 41 42 43 40 37 35 34 33 31 29 27 28 27 21 15 11 9 7 7 6 5 3 3 4 5 5 6 7 6 3 1 0
0 0 1 2 2 2 3 6 8 10 18 28 36 39 38 35 34 36 40 44 45 42 40 40 38 36 35 34 31 27 21 15 10 9 8 8 8 7 5 5 5 4 3 3 3 2 1 0 0
0 0 0 1 1 2 4 6 9 12 20 31 39 40 35 31 31 35 41 45 46 46 47 45 41 37 37 37 32 27 23 18 13 11 12 12 12 11 9 9 6 3 1 1 0 0 0 0 0
0 0 0 0 0 1 4 7 11 15 20 29 38 40 35 30 31 36 41 45 47 49 51 49 44 40 39 37 33 30 27 24 19 17 17 17 16 14 11 8 5 2 0 0 0 0 0 0 0
0 0 0 0 0 1 3 7 11 16 21 28 35 37 35 33 33 36 40 45 48 50 50 47 44 41 40 37 36 34 33 29 25 22 20 17 15 13 9 5 3 1 1 0 0 0 0 0 0
0 0 0 0 0 1 3 6 11 16 23 28 31 31 32 34 35 37 41 44 44 45 44 42 40 39 39 40 39 38 35 31 27 23 20 16 14 11 6 3 3 3 2 1 0 0 0 0 0
0 0 0 0 0 0 2 6 11 18 24 27 27 28 30 33 34 37 39 39 37 36 36 35 34 33 36 40 40 38 35 30 25 22 20 17 15 10 5 4 5 5 3 2 1 1 0 0 0
0 0 0 0 0 0 1 4 10 17 24 26 25 26 27 29 31 33 33 31 30 31 31 29 28 27 30 35 36 34 31 28 23 20 18 15 13 9 5 4 5 6 5 3 3 1 0 0 0
0 0 0 0 1 0 0 1 6 14 21 23 22 22 24 25 25 27 27 27 27 28 28 26 24 24 26 28 28 27 24 24 21 17 14 12 11 9 5 4 5 6 6 5 4 3 1 0 0
0 0 0 0 0 0 0 0 3 8 14 16 17 18 20 19 19 20 23 24 24 25 25 24 24 25 24 23 23 22 20 19 17 13 9 8 9 8 5 5 5 6 6 5 4 2 1 0 0
0 0 0 0 0 0 0 0 1 4 7 11 15 17 16 15 15 17 19 21 22 23 23 24 24 24 23 22 21 19 17 15 12 8 6 5 6 6 5 5 5 4 4 3 1 1 1 0 0
0 0 0 0 0 0 0 0 0 1 4 10 15 17 15 14 16 18 18 18 20 22 23 23 23 23 22 20 19 17 16 13 10 6 4 4 4 4 4 5 4 3 3 2 0 0 0 0 0
0 0 0 0 0 0 0 0 0 1 4 10 16 16 15 15 17 19 19 19 20 21 22 22 21 20 18 17 15 14 13 11 9 7 6 4 3 3 3 4 3 3 3 2 1 0 0 0 0
0 0 0 0 0 0 0 0 0 1 4 10 15 15 15 15 16 18 18 18 18 18 21 22 20 17 15 14 12 12 11 9 7 7 6 4 3 3 3 3 3 3 3 2 1 0 0 0 0
0 0 0 0 0 0 0 0 0 0 2 7 11 13 12 13 14 14 13 13 13 15 18 20 18 15 14 12 11 10 9 7 6 6 6 5 4 3 3 3 3 3 3 2 1 0 0 0 0
0 0 0 0 0 0 0 0 0 0 1 4 8 10 11 11 11 10 9 10 10 12 15 16 14 12 11 10 10 9 6 5 4 6 6 6 5 4 3 3 3 2 1 1 0 0 0 0 0
0 0 0 0 0 0 0 0 0 0 0 3 6 8 9 9 8 8 9 10 10 10 10 10 10 9 8 8 8 7 6 4 4 6 6 6 5 4 4 3 2 1 1 1 0 0 0 0 0
0 0 0 0 0 0 0 0 0 0 1 3 6 7 7 8 7 7 9 11 10 8 7 7 8 7 7 6 6 6 6 5 4 5 5 5 4 4 4 3 1 1 2 2 1 0 0 0 0
Wind_Speed
4 2 1 3 5 4 3 5 3 2 3 4 9 11 9 6 4 5 3 13 16 14 12 14 16 16 17 16 16 15 14 14 13 13 13 12 12 12 11 11 10 10 10 10 9 9 8 8 8
2 1 3 4 5 1 5 4 1 2 5 8 9 9 9 7 7 9 7 13 17 15 11 13 17 17 17 16 16 15 15 14 13 13 12 12 11 10 10 10 10 9 8 8 8 8 7 6 6
2 1 3 4 2 3 4 3 1 3 5 6 6 6 6 6 8 7 9 16 14 12 9 13 18 17 17 17 16 15 15 14 13 12 12 11 10 10 9 9 9 8 8 7 7 7 6 5 4
2 4 4 4 3 6 5 5 1 3 3 5 8 7 4 4 6 10 16 17 15 11 9 12 18 17 17 16 16 15 15 14 13 12 12 11 10 9 9 9 8 8 7 6 6 6 5 3 2
4 4 4 2 5 5 5 6 3 3 3 4 8 7 4 4 13 18 17 16 16 11 8 11 16 17 16 16 16 15 15 14 13 12 11 11 9 9 8 8 8 7 6 6 6 5 4 3 2
4 4 3 2 6 6 4 3 2 6 6 5 7 7 3 6 14 15 15 14 14 14 10 10 16 17 16 16 15 14 14 13 12 11 10 10 9 8 8 7 7 7 6 6 5 5 4 4 3
3 3 1 3 5 5 3 1 3 6 5 3 5 6 3 5 10 12 13 12 12 12 11 8 9 12 15 15 14 14 13 12 11 10 10 10 9 8 8 7 7 7 6 6 6 5 5 5 4
5 4 2 3 3 4 4 4 3 4 4 4 5 8 6 7 10 12 12 11 10 9 9 8 7 7 8 9 13 14 13 12 11 11 10 10 9 9 8 7 6 7 7 7 6 6 6 6 6
3 4 2 4 2 3 2 3 3 3 5 3 3 5 8 11 12 14 11 8 8 8 6 8 7 7 6 7 10 11 12 11 10 9 10 8 4 4 4 7 8 8 8 8 7 7 6 6 6
4 3 7 6 3 2 2 1 2 4 5 4 5 6 10 12 13 14 12 10 10 10 8 7 7 7 7 7 6 4 5 5 4 4 5 3 3 3 4 5 9 9 9 8 8 8 6 5 2
4 6 7 5 4 3 0 2 1 6 1 5 10 11 10 10 10 11 11 10 10 10 10 9 8 8 7 5 5 3 3 3 4 4 4 3 3 2 3 2 4 5 6 4 4 4 2 2 2
2 6 5 4 3 1 2 1 1 2 5 8 13 15 12 11 11 10 11 11 9 10 9 8 8 8 7 6 5 5 4 4 4 4 5 3 2 2 2 2 3 2 2 2 2 2 2 3 3
2 5 5 4 3 1 0 0 2 2 5 8 11 12 13 12 10 9 10 11 10 10 9 8 7 7 6 6 5 5 5 4 5 4 4 4 3 3 2 2 2 2 2 2 2 2 3 3 2
4 5 6 5 4 1 1 1 2 4 6 9 11 11 11 11 10 7 7 7 8 8 8 8 7 7 6 5 4 4 4 4 4 4 4 5 3 3 2 2 2 2 2 2 2 2 2 2 2
3 6 8 6 4 3 2 3 3 7 7 9 10 11 10 8 8 8 7 7 7 7 7 7 7 5 5 5 5 4 4 4 4 4 4 5 4 3 3 2 1 1 1 1 1 1 1 1 1
5 4 5 9 4 4 3 4 6 5 7 8 9 9 8 7 7 6 6 6 7 7 6 6 6 5 5 4 3 2 3 4 3 3 3 4 3 3 2 2 2 1 1 1 1 1 1 1 1
5 3 5 8 5 2 2 3 5 4 6 7 8 8 9 8 7 6 7 7 7 7 7 6 6 6 6 5 3 3 3 3 3 3 2 3 3 3 2 2 2 2 1 1 1 1 1 1 1
5 4 4 6 7 3 1 2 3 3 4 6 6 6 8 9 8 7 7 7 8 7 6 6 4 3 3 3 2 2 2 1 2 2 3 3 2 3 2 2 2 2 1 0 0 1 1 1 1
5 4 6 8 6 3 2 3 2 3 2 3 3 4 5 6 5 6 7 8 7 6 6 5 5 3 3 3 3 3 2 2 2 2 3 3 3 3 3 1 1 1 1 1 1 1 0 0 0
3 4 6 7 5 2 2 3 1 2 3 5 6 4 5 5 4 5 6 6 7 6 6 5 4 3 3 2 2 2 3 2 2 1 1 2 2 2 2 2 1 1 1 0 1 1 1 0 0
3 2 4 5 5 4 2 4 3 2 1 2 2 4 5 6 7 7 7 6 5 5 5 5 5 5 4 3 2 2 2 1 1 1 1 1 2 2 2 2 2 1 1 1 1 1 2 1 1
3 5 3 4 3 4 2 2 5 2 2 1 1 2 3 4 5 6 7 6 6 5 4 4 4 3 3 3 4 5 3 2 2 1 1 0 1 1 1 1 2 1 1 1 1 1 1 2 1
4 4 2 2 1 3 4 1 6 3 2 4 4 3 3 5 7 6 7 7 6 5 4 4 4 3 2 3 5 5 3 2 1 1 1 1 1 0 1 1 1 1 1 1 0 0 1 1 2
1 5 6 5 5 3 3 0 5 3 4 4 3 3 3 4 6 6 5 5 5 5 4 4 4 3 2 3 4 5 5 4 3 2 1 1 1 1 0 1 1 1 0 0 1 1 1 1 1
6 6 6 7 5 5 4 0 5 5 4 4 4 4 3 5 6 6 6 5 5 6 5 5 4 3 2 3 3 4 5 5 5 4 3 2 1 1 1 1 1 1 1 1 1 1 1 1 1
2 5 5 3 4 6 4 2 6 6 4 2 3 3 4 4 4 5 6 6 6 6 6 6 6 4 3 3 3 3 3 3 3 3 3 3 2 2 1 1 1 1 1 1 0 0 1 1 1
2 1 5 5 2 3 4 3 5 3 3 1 1 3 3 3 3 3 4 5 5 5 6 6 6 4 3 3 3 2 3 3 3 3 2 2 1 2 1 1 1 1 1 1 0 1 1 1 1
2 2 4 3 0 4 5 4 5 5 4 2 1 3 3 3 3 3 4 4 4 4 4 5 5 4 3 3 3 2 2 3 3 2 3 2 1 1 1 1 1 1 0 0 0 1 1 0 1
4 3 2 2 4 3 4 7 6 7 5 4 4 4 5 5 4 3 2 3 3 3 3 3 3 3 2 2 2 2 2 2 2 2 2 2 2 1 1 1 1 1 0 0 0 1 1 1 1
1 2 3 2 4 4 3 9 6 4 3 3 3 4 4 4 3 3 2 2 3 3 3 3 2 2 2 2 2 2 2 2 2 2 2 2 2 1 1 1 0 0 0 0 0 1 1 1 1
Wind_Direction
281 271 116 63 55 45 284 262 233 26 36 59 86 95 95 87 132 151 133 138 135 139 144 144 143 141 139 137 134 131 128 126 123 120 117 115 114 113 113 113 112 113 115 115 114 113 110 108 106
274 268 66 60 79 22 281 259 207 106 127 112 85 83 80 74 90 112 121 140 138 140 143 145 144 144 143 141 139 137 136 134 131 129 127 125 123 121 120 119 119 118 119 120 119 116 114 114 110
271 134 83 73 110 194 262 282 167 105 119 109 90 67 82 108 118 132 144 141 135 136 140 147 146 146 145 145 144 143 142 140 139 137 135 134 132 130 129 128 127 126 127 128 127 125 124 123 119
55 47 53 69 252 234 228 261 240 96 75 72 99 78 69 105 128 135 140 141 134 135 139 148 148 147 147 148 148 148 147 147 146 145 144 143 140 138 137 137 138 139 141 141 140 139 140 144 142
68 71 51 354 272 259 234 231 201 126 91 82 98 97 64 51 113 131 141 142 139 139 142 147 147 148 149 150 151 152 152 152 153 152 152 151 149 148 148 150 151 154 158 159 157 157 161 173 193
50 67 68 294 280 279 270 247 117 85 86 78 90 100 85 116 125 140 142 142 143 144 144 147 150 151 152 153 154 155 156 157 158 157 157 157 156 157 160 163 166 169 171 175 177 178 186 201 228
113 88 204 257 283 302 301 18 80 103 103 107 114 104 115 135 137 140 139 136 140 144 145 148 152 153 155 156 158 159 160 161 161 163 164 165 166 168 169 175 179 183 187 191 197 202 208 216 233
149 91 328 298 298 303 317 15 53 97 111 122 116 130 163 171 139 128 128 129 135 140 147 148 147 149 154 158 162 163 164 165 166 170 172 174 177 181 185 187 191 195 200 204 210 219 224 229 240
112 75 273 256 258 281 320 44 13 37 102 96 99 141 156 143 128 125 126 128 138 144 150 150 151 153 152 155 167 167 169 171 173 178 181 180 185 191 197 201 203 206 210 214 216 222 231 238 248
110 152 235 226 201 212 315 58 115 68 71 80 81 102 130 135 136 139 145 154 158 161 164 160 162 162 161 167 159 163 171 171 173 174 181 178 184 200 209 220 217 218 219 223 226 231 239 245 253
173 204 244 257 222 181 290 331 76 120 109 168 156 150 149 143 145 148 153 165 171 167 168 168 171 168 170 164 158 167 167 166 179 187 187 187 191 209 219 216 229 227 226 229 240 240 235 230 228
236 260 257 263 253 184 204 187 65 163 193 182 162 154 153 155 159 161 158 169 169 165 170 171 173 171 175 165 169 171 172 175 187 199 193 183 190 206 210 212 210 205 211 214 229 227 224 229 229
269 275 288 289 292 232 239 192 137 213 170 150 148 153 159 164 165 165 161 166 165 166 166 166 167 172 174 166 175 174 181 184 188 189 191 183 184 197 196 201 197 199 206 215 220 218 217 228 235
272 295 301 291 278 273 156 265 106 221 164 154 155 163 169 170 167 159 161 162 168 171 172 168 163 170 167 168 173 175 180 179 182 189 189 184 183 185 180 181 187 205 212 218 219 221 210 221 233
317 338 329 307 298 280 79 335 241 209 168 165 167 166 171 173 160 158 166 164 164 163 161 165 161 160 163 167 176 175 177 171 176 184 183 180 175 174 169 163 180 213 220 208 207 228 203 208 242
359 9 321 293 290 275 121 243 256 201 166 173 174 172 170 170 157 150 153 157 151 144 148 158 153 146 155 167 180 179 173 169 180 181 179 179 171 160 156 163 188 203 213 179 174 188 209 219 227
3 329 287 297 296 302 104 234 250 206 167 175 176 173 170 165 160 159 153 148 144 149 147 144 138 150 155 165 175 155 157 165 171 169 170 177 171 166 164 175 186 173 165 168 192 169 189 207 262
271 277 291 290 298 355 29 247 235 211 169 176 171 171 167 166 175 165 150 142 140 144 140 135 135 143 153 143 135 143 136 152 156 159 165 161 158 155 153 168 165 154 157 190 156 182 200 186 225
243 279 288 281 289 1 338 314 270 206 154 150 155 163 168 167 171 154 144 142 139 140 135 139 145 158 153 151 162 168 170 166 168 168 163 163 161 148 146 155 139 136 158 194 178 174 181 256 95
290 307 298 297 302 332 342 326 330 114 154 159 154 150 151 149 146 146 141 148 149 150 144 139 139 145 176 181 183 174 165 169 176 165 141 148 145 144 148 138 145 147 144 199 187 130 120 280 122
309 272 283 293 327 358 32 341 345 348 51 77 121 141 151 153 157 158 152 151 146 148 152 156 164 166 177 173 145 113 91 82 100 111 145 176 149 143 136 141 145 159 142 180 186 158 154 219 279
296 274 286 314 358 310 23 302 306 288 14 6 242 156 163 156 155 160 158 157 155 158 158 162 164 158 168 161 142 143 146 149 170 163 158 152 71 101 114 133 135 128 121 134 210 175 182 169 228
255 286 316 307 324 340 2 94 290 336 327 275 252 200 173 164 156 162 164 165 159 156 161 161 148 140 155 150 146 143 135 144 114 90 85 46 5 12 115 120 117 121 118 123 127 286 199 180 197
326 12 10 28 56 359 303 234 284 286 262 257 238 213 177 154 152 158 154 151 157 159 151 145 140 149 162 147 139 143 152 149 129 119 166 225 261 296 221 132 126 126 118 176 227 236 247 231 220
31 54 15 359 4 274 300 329 253 257 252 217 204 194 175 155 155 158 158 161 162 167 163 153 149 161 169 160 156 160 165 163 165 178 186 181 206 239 243 171 165 162 204 225 222 237 261 246 234
313 123 150 226 253 280 320 250 253 248 257 224 177 171 158 151 154 166 170 166 167 171 167 157 165 171 170 174 176 173 172 164 165 176 167 176 192 207 208 192 206 211 218 231 234 257 260 254 251
4 310 174 150 264 294 285 275 288 274 292 327 101 111 147 147 140 162 168 167 171 170 168 168 171 171 176 178 167 160 170 161 158 160 163 172 194 203 196 210 230 242 226 215 198 234 257 268 271
125 166 73 84 267 284 287 268 254 260 261 254 199 172 183 159 149 160 172 181 181 165 153 155 167 175 179 170 162 155 167 164 160 149 154 170 190 205 212 241 242 251 268 276 200 252 264 284 278
340 3 80 134 174 196 264 266 242 231 223 219 213 183 174 172 172 175 176 174 161 141 136 144 152 147 153 160 152 148 157 155 143 148 168 177 179 196 202 220 211 190 215 252 359 286 289 289 288
245 235 158 186 252 207 223 268 273 216 206 192 192 175 160 156 161 157 142 112 117 122 130 137 144 139 152 158 150 149 141 142 159 182 187 166 165 185 175 156 131 131 64 23 359 303 306 288 288